Flag for Afghanistan Weather past 2 weeks in Jalalabad, Afghanistan

Now
55 °F

Fog.


Feels Like: 55 °F
Forecast: 52 / 79 °F
Wind: No wind

Location: Peshawar Airport


UV Index: 5 (Moderate)

Visibility: 2 mi


Pressure: 29.95 "Hg

Humidity: 88%

Dew point: 52 °F

Location of JalalabadLocation

Historic Weather in Jalalabad

°F

Jalalabad temperature yesterday

Maximum temperature yesterday: 70 °F (at 9:30 AM)
Minimum temperature yesterday: 61 °F (at 2:30 PM)
Average temperature yesterday: 65 °F

Past Weeks' High & Low Weather Summary

 TemperatureHumidityPressure
High88 °F (Apr 11, 3:30 PM)94% (Apr 18, 2:30 PM)30.09 "Hg (Apr 18, 2:30 PM)
Low55 °F (Apr 19, 4:29 AM)19% (Apr 9, 2:30 PM)29.53 "Hg (Apr 13, 5:30 PM)
Average71 °F58%29.91 "Hg
* Reported Apr 4 5:30 AM — Apr 19 5:30 AM, Jalalabad, Weather by CustomWeather, © 2014

Note: Actual official high and low records may vary slightly from our data, if they occured in-between our weather recording intervals... More about our weather records

Advertising

Historic Weather Conditions — Data for Previous 24 hours

 ConditionsComfort  
Time TempWeatherWind HumidityBarometerVisibility
5:30 AM
Apr 19
55 °FFog.No wind88%29.95 "Hg1 mi
4:29 AM55 °FFog.No wind44%29.95 "Hg2 mi
3:30 AM57 °FFog.No wind88%29.95 "Hg2 mi
2:30 AM57 °FFog.No wind88%29.95 "Hg2 mi
1:30 AM59 °FCool.N/A88%30.09 "HgN/A
12:30 AM59 °FCool.N/A88%29.95 "HgN/A
11:30 PM
Apr 18
61 °FCool.N/A88%29.98 "HgN/A
10:30 PM61 °FCool.N/A88%29.98 "HgN/A
9:30 PM63 °FMild.N/A88%29.98 "HgN/A
8:30 PM63 °FMild.N/A83%29.95 "HgN/A
7:30 PM64 °FMild.N/A78%29.95 "HgN/A
6:30 PM66 °FMild.N/A78%29.95 "HgN/A
5:30 PM66 °FMild.N/A78%29.95 "HgN/A
4:30 PM66 °FMild.N/A78%29.95 "HgN/A
3:30 PM61 °FCool.N/A88%29.98 "HgN/A
2:30 PM61 °FCool.N/A94%30.01 "HgN/A
1:30 PM63 °FMild.N/A73%30.01 "HgN/A
12:33 PM66 °FMild.N/A78%30.01 "HgN/A
11:33 AM68 °FMild.N/A69%30.01 "HgN/A
10:30 AM70 °FMild.N/A69%30.01 "HgN/A
9:30 AM70 °FMild.N/A69%29.98 "HgN/A
8:30 AM68 °FMild.N/A78%29.98 "HgN/A
7:30 AM66 °FMild.N/A83%29.95 "HgN/A
6:30 AM64 °FMild.N/A88%29.95 "HgN/A
Weather by CustomWeather, © 2014

See weather overview